Location: Wingville
(42.9917°N, 90.4915°W)
Time: 03:08:21
(UTC+00:00)

Cosmos 1805 Rocket - Pass Details

Date: 09 December 2022
Orbit: 604 x 629 km, 82.5° (Epoch: 03 February)

Event Time Altitude Azimuth Distance (km) Brightness Sun altitude
Rises 01:20:18 0° 334° (NNW) 2,920 7.3 -30.8°
Reaches altitude 10° 01:23:13 10° 314° (NW) 2,011 6.6 -31.3°
Maximum altitude 01:26:00 17° 275° (W) 1,620 6.4 -31.8°
Drops below altitude 10° 01:28:47 10° 236° (SW) 2,004 6.8 -32.3°
Sets 01:31:42 0° 215° (SW) 2,907 7.5 -32.9°
